EW4918 Weather Reports


Display with metric or nautical units.
time (UTC)temp
F
wind
direction
speed
MPH
gust
MPH
rain 1hr
in
rain 24hr
in
rain mn
in
humidity
%
barometer
mb
20260510044521 49 190 0.0 0.0 0.00 0.09 0.09 93 1007.9
20260510044020 50 184 0.0 0.0 0.00 0.08 0.08 93 1007.9
20260510043519 50 198 0.0 0.0 0.00 0.07 0.07 91 1007.9
20260510043019 50 175 1.0 6.0 0.00 0.05 0.05 90 1008.0
20260510042518 51 231 1.0 8.0 0.00 0.01 0.01 88 1008.1
20260510042017 51 196 0.0 0.0 0.00 0.00 0.00 87 1007.6
20260510041517 51 179 1.0 3.0 0.00 0.00 0.00 87 1007.3
20260510041016 51 184 0.0 3.0 0.00 0.00 0.00 87 1007.2
20260510040515 51 197 1.0 11.0 0.00 0.00 0.00 87 1007.3
20260510040020 51 176 0.0 3.0 0.00 0.00 0.00 86 1007.4
20260510035519 51 180 0.0 0.0 0.00 0.00 0.00 86 1007.3
20260510035018 50 173 0.0 1.0 0.00 0.00 0.00 87 1007.3
20260510034016 50 169 1.0 5.0 0.00 0.00 0.00 88 1006.9
20260510033516 49 191 0.0 0.0 0.00 0.00 0.00 88 1006.8
20260510033015 49 165 0.0 3.0 0.00 0.00 0.00 89 1006.5
20260510032520 49 163 0.0 0.0 0.00 0.00 0.00 89 1006.6
20260510032020 49 165 0.0 1.0 0.00 0.00 0.00 90 1006.7
20260510031519 48 146 0.0 0.0 0.00 0.00 0.00 91 1006.6
20260510031018 48 161 0.0 0.0 0.00 0.00 0.00 92 1006.7
20260510030518 48 179 0.0 0.0 0.00 0.00 0.00 92 1006.7
20260510030015 47 179 0.0 1.0 0.00 0.00 0.00 92 1006.8
20260510025515 47 179 0.0 1.0 0.00 0.00 0.00 92 1006.8
20260510025020 47 146 0.0 0.0 0.00 0.00 0.00 92 1006.8
20260510024520 47 144 0.0 0.0 0.00 0.00 0.00 92 1006.8
20260510023516 47 128 0.0 0.0 0.00 0.00 0.00 92 1007.0
20260510023016 46 88 0.0 0.0 0.00 0.00 0.00 91 1007.0
20260510022515 46 243 0.0 0.0 0.00 0.00 0.00 91 1007.0
20260510022015 47 244 0.0 0.0 0.00 0.00 0.00 90 1007.0
20260510021520 47 61 0.0 0.0 0.00 0.00 0.00 90 1006.9
20260510021020 47 145 0.0 0.0 0.00 0.00 0.00 89 1007.2
20260510020016 47 78 0.0 0.0 0.00 0.00 0.00 90 1007.4
20260510015515 48 175 0.0 0.0 0.00 0.00 0.00 90 1007.5
20260510014017 48 174 0.0 0.0 0.00 0.00 0.00 89 1007.7
20260510013516 48 174 0.0 0.0 0.00 0.00 0.00 89 1007.6
20260510013016 48 174 0.0 0.0 0.00 0.00 0.00 89 1007.6
20260510012515 48 174 0.0 0.0 0.00 0.00 0.00 89 1007.6
20260510012020 48 174 0.0 0.0 0.00 0.00 0.00 89 1007.7
20260510011018 48 174 0.0 0.0 0.00 0.00 0.00 87 1007.3
20260510010517 48 174 0.0 0.0 0.00 0.00 0.00 87 1007.3
20260510010016 48 174 0.0 1.0 0.00 0.00 0.00 86 1007.2
20260510005520 49 174 0.0 0.0 0.00 0.00 0.00 86 1007.1
20260510005019 49 174 0.0 0.0 0.00 0.00 0.00 86 1007.2
20260510004017 49 172 0.0 0.0 0.00 0.00 0.00 86 1007.0
20260510003516 49 172 0.0 0.0 0.00 0.00 0.00 85 1007.0
20260510003016 49 176 0.0 0.0 0.00 0.00 0.00 86 1007.2
20260510002515 49 200 0.0 0.0 0.00 0.00 0.00 85 1007.2
20260510002020 49 200 0.0 0.0 0.00 0.00 0.00 85 1007.2
20260510001520 49 200 0.0 0.0 0.00 0.00 0.00 85 1007.2
20260510001019 49 200 0.0 0.0 0.00 0.00 0.00 85 1007.4
20260510000016 50 178 0.0 0.0 0.00 0.00 0.00 84 1007.4
20260509235520 50 179 0.0 0.0 0.00 0.00 0.00 84 1007.3
20260509235019 50 180 0.0 0.0 0.00 0.00 0.00 84 1007.3
20260509234519 50 180 0.0 0.0 0.00 0.00 0.00 83 1007.4
20260509233516 50 180 0.0 0.0 0.00 0.00 0.00 83 1007.6
20260509233015 50 187 0.0 0.0 0.00 0.00 0.00 83 1007.6
20260509232019 50 177 0.0 0.0 0.00 0.00 0.00 82 1007.5
20260509231518 50 181 0.0 0.0 0.00 0.00 0.00 82 1007.3
20260509231017 50 171 0.0 1.0 0.00 0.00 0.00 83 1007.3
20260509230517 50 174 1.0 8.0 0.00 0.00 0.00 82 1007.3
20260509230016 51 209 0.0 2.0 0.00 0.00 0.00 82 1007.4
20260509225519 51 187 0.0 0.0 0.00 0.00 0.00 82 1007.4
20260509225018 51 178 0.0 0.0 0.00 0.00 0.00 82 1007.3
20260509224518 51 188 0.0 1.0 0.00 0.00 0.00 81 1007.5
20260509224017 51 199 0.0 0.0 0.00 0.00 0.00 82 1007.4
20260509222017 51 151 0.0 0.0 0.00 0.00 0.00 81 1007.5
20260509221516 51 194 0.0 0.0 0.00 0.00 0.00 82 1007.6
20260509221015 51 185 0.0 0.0 0.00 0.00 0.00 83 1007.4
20260509215515 50 190 0.0 0.0 0.00 0.00 0.00 81 1007.4
20260509215014 50 178 0.0 1.0 0.00 0.00 0.00 81 1007.6
20260509214520 50 157 0.0 1.0 0.00 0.00 0.00 81 1007.7
20260509214019 51 164 0.0 1.0 0.00 0.00 0.00 81 1007.7
20260509213519 51 172 0.0 0.0 0.00 0.00 0.00 81 1007.7
20260509213018 51 197 0.0 2.0 0.00 0.00 0.00 80 1007.8
20260509212517 51 186 0.0 1.0 0.00 0.00 0.00 79 1007.7
20260509212017 51 211 0.0 3.0 0.00 0.00 0.00 79 1007.8
20260509211516 51 113 0.0 1.0 0.00 0.00 0.00 79 1007.9
20260509210520 51 119 0.0 0.0 0.00 0.00 0.00 78 1008.0
20260509210020 51 116 0.0 0.0 0.00 0.00 0.00 77 1007.8
20260509205517 51 151 0.0 1.0 0.00 0.00 0.00 77 1007.7
20260509205017 51 132 0.0 0.0 0.00 0.00 0.00 76 1007.8
20260509204516 52 132 0.0 1.0 0.00 0.00 0.00 76 1007.7
20260509203514 52 127 0.0 0.0 0.00 0.00 0.00 74 1007.9
20260509203019 53 183 1.0 4.0 0.00 0.00 0.00 73 1007.9
20260509202017 53 182 0.0 2.0 0.00 0.00 0.00 72 1008.1
20260509201015 54 130 0.0 2.0 0.00 0.00 0.00 70 1008.1
20260509200520 54 178 0.0 0.0 0.00 0.00 0.00 70 1008.1
20260509200020 54 156 0.0 0.0 0.00 0.00 0.00 68 1008.2
20260509195517 54 189 0.0 0.0 0.00 0.00 0.00 67 1008.2
20260509195017 55 162 0.0 2.0 0.00 0.00 0.00 67 1008.2
20260509194516 55 194 0.0 0.0 0.00 0.00 0.00 68 1008.2
20260509194015 55 186 0.0 0.0 0.00 0.00 0.00 67 1008.1
20260509193515 55 191 0.0 0.0 0.00 0.00 0.00 67 1008.3
20260509193020 55 203 0.0 1.0 0.00 0.00 0.00 65 1008.2
20260509192018 57 180 0.0 0.0 0.00 0.00 0.00 63 1008.3
20260509191015 58 141 0.0 0.0 0.00 0.00 0.00 60 1008.3
20260509190520 57 167 0.0 0.0 0.00 0.00 0.00 63 1008.3
20260509190019 56 192 1.0 3.0 0.00 0.00 0.00 63 1008.4
20260509185517 56 178 0.0 1.0 0.00 0.00 0.00 62 1008.4
20260509185017 57 188 0.0 0.0 0.00 0.00 0.00 59 1008.5
20260509184516 58 187 0.0 6.0 0.00 0.00 0.00 61 1008.4
20260509184015 58 178 0.0 0.0 0.00 0.00 0.00 64 1008.5
20260509183520 57 161 2.0 5.0 0.00 0.00 0.00 63 1008.5
20260509183019 56 184 0.0 0.0 0.00 0.00 0.00 63 1008.6
20260509182519 57 175 3.0 9.0 0.00 0.00 0.00 60 1008.7
20260509182018 57 159 0.0 0.0 0.00 0.00 0.00 60 1008.8
20260509181518 58 173 1.0 3.0 0.00 0.00 0.00 61 1008.7
20260509181017 58 180 1.0 8.0 0.00 0.00 0.00 59 1008.7
20260509180015 58 126 0.0 0.0 0.00 0.00 0.00 60 1008.8
20260509175519 57 149 0.0 0.0 0.00 0.00 0.00 57 1008.9
20260509175018 57 185 1.0 5.0 0.00 0.00 0.00 61 1008.8
20260509174015 56 196 0.0 0.0 0.00 0.00 0.00 60 1009.0
20260509173515 55 174 0.0 0.0 0.00 0.00 0.00 61 1009.0
20260509173020 55 107 0.0 0.0 0.00 0.00 0.00 60 1009.2
20260509172519 55 200 0.0 0.0 0.00 0.00 0.00 60 1009.4
20260509172019 55 185 0.0 1.0 0.00 0.00 0.00 59 1009.4
20260509171518 55 94 0.0 2.0 0.00 0.00 0.00 61 1009.3
20260509171017 55 190 0.0 0.0 0.00 0.00 0.00 58 1009.5
20260509170015 55 188 1.0 5.0 0.00 0.00 0.00 57 1009.7
20260509165532 55 181 0.0 0.0 0.00 0.00 0.00 55 1009.7
20260509165018 55 162 0.0 0.0 0.00 0.00 0.00 56 1009.8
20260509164517 55 184 0.0 0.0 0.00 0.00 0.00 55 1009.7
20260509164017 55 186 0.0 0.0 0.00 0.00 0.00 56 1009.7
20260509163516 55 119 0.0 2.0 0.00 0.00 0.00 56 1009.8
20260509163016 55 175 0.0 0.0 0.00 0.00 0.00 54 1009.8
20260509162515 55 184 0.0 0.0 0.00 0.00 0.00 53 1009.8
20260509162020 56 191 0.0 4.0 0.00 0.00 0.00 51 1009.9
20260509161520 57 169 0.0 1.0 0.00 0.00 0.00 49 1010.0
20260509161019 57 180 0.0 0.0 0.00 0.00 0.00 51 1010.0
20260509160518 57 158 0.0 0.0 0.00 0.00 0.00 49 1010.0
20260509160018 57 168 0.0 0.0 0.00 0.00 0.00 48 1010.0
20260509155517 57 167 2.0 5.0 0.00 0.00 0.00 47 1010.1
20260509155015 57 195 0.0 0.0 0.00 0.00 0.00 47 1010.3
20260509154520 57 220 1.0 4.0 0.00 0.00 0.00 47 1010.4
20260509154019 57 186 0.0 1.0 0.00 0.00 0.00 44 1010.4
20260509153519 57 154 0.0 3.0 0.00 0.00 0.00 50 1010.5
20260509152517 57 121 0.0 0.0 0.00 0.00 0.00 45 1010.6
20260509152016 57 144 0.0 0.0 0.00 0.00 0.00 46 1010.7
20260509151019 57 171 0.0 1.0 0.00 0.00 0.00 43 1010.8
20260509150519 56 69 1.0 8.0 0.00 0.00 0.00 44 1010.8
20260509150018 56 117 0.0 0.0 0.00 0.00 0.00 46 1010.9
20260509145015 56 157 0.0 1.0 0.00 0.00 0.00 44 1010.9
20260509144018 55 179 0.0 0.0 0.00 0.00 0.00 47 1011.0
20260509143518 54 148 0.0 0.0 0.00 0.00 0.00 48 1011.2
20260509143017 54 128 0.0 0.0 0.00 0.00 0.00 46 1011.2
20260509142516 54 105 0.0 0.0 0.00 0.00 0.00 48 1011.2
20260509142016 53 194 0.0 0.0 0.00 0.00 0.00 49 1011.2
20260509141521 53 157 0.0 0.0 0.00 0.00 0.00 47 1011.2
20260509141020 53 178 0.0 0.0 0.00 0.00 0.00 47 1011.3
20260509140519 53 147 0.0 0.0 0.00 0.00 0.00 48 1011.3
20260509140019 53 135 0.0 0.0 0.00 0.00 0.00 51 1011.4
20260509135518 52 105 0.0 1.0 0.00 0.00 0.00 52 1011.4
20260509134515 52 171 0.0 0.0 0.00 0.00 0.00 53 1011.4
20260509134014 51 178 0.0 0.0 0.00 0.00 0.00 52 1011.4
20260509133520 51 188 0.0 0.0 0.00 0.00 0.00 51 1011.4
20260509133019 51 166 2.0 4.0 0.00 0.00 0.00 52 1011.5
20260509132519 51 118 0.0 0.0 0.00 0.00 0.00 50 1011.5
20260509132018 50 183 0.0 6.0 0.00 0.00 0.00 54 1011.6
20260509131015 49 144 0.0 0.0 0.00 0.00 0.00 56 1011.7
20260509130520 49 140 0.0 0.0 0.00 0.00 0.00 57 1011.8
20260509130020 48 130 0.0 0.0 0.00 0.00 0.00 55 1011.7
20260509125519 48 157 0.0 0.0 0.00 0.00 0.00 57 1011.6
20260509125017 47 103 0.0 0.0 0.00 0.00 0.00 60 1011.6
20260509124516 47 93 0.0 0.0 0.00 0.00 0.00 60 1011.8
20260509124016 46 92 0.0 0.0 0.00 0.00 0.00 58 1011.9
20260509123020 45 104 0.0 0.0 0.00 0.00 0.00 63 1012.0
20260509122519 44 126 0.0 0.0 0.00 0.00 0.00 67 1011.9
20260509122019 43 105 0.0 0.0 0.00 0.00 0.00 70 1011.9
20260509121518 42 107 0.0 0.0 0.00 0.00 0.00 72 1011.9
20260509120515 38 107 0.0 0.0 0.00 0.00 0.00 77 1011.9
20260509120015 37 107 0.0 0.0 0.00 0.00 0.00 82 1011.9
20260509115520 36 106 0.0 0.0 0.00 0.00 0.00 86 1011.9
20260509115018 35 104 0.0 0.0 0.00 0.00 0.00 88 1012.0
20260509114016 34 296 0.0 0.0 0.00 0.00 0.00 89 1012.0
20260509113515 33 296 0.0 0.0 0.00 0.00 0.00 90 1012.1
20260509112519 32 296 0.0 0.0 0.00 0.00 0.00 91 1012.0
20260509112018 32 296 0.0 0.0 0.00 0.00 0.00 92 1012.0
20260509111517 32 296 0.0 0.0 0.00 0.00 0.00 92 1012.0
20260509111017 31 296 0.0 0.0 0.00 0.00 0.00 93 1012.0
20260509110015 30 296 0.0 0.0 0.00 0.00 0.00 93 1012.0
20260509105017 30 296 0.0 0.0 0.00 0.00 0.00 93 1012.1
20260509104517 29 296 0.0 0.0 0.00 0.00 0.00 93 1012.1
20260509104016 29 296 0.0 0.0 0.00 0.00 0.00 93 1012.0
20260509103515 29 296 0.0 0.0 0.00 0.00 0.00 93 1012.1
20260509103021 29 296 0.0 0.0 0.00 0.00 0.00 93 1012.0
20260509102520 29 296 0.0 0.0 0.00 0.00 0.00 93 1012.0
20260509102019 28 296 0.0 0.0 0.00 0.00 0.00 93 1012.1
20260509101518 28 296 0.0 0.0 0.00 0.00 0.00 93 1012.1
20260509101018 28 296 0.0 0.0 0.00 0.00 0.00 92 1012.2
20260509100517 28 296 0.0 0.0 0.00 0.00 0.00 92 1012.1
20260509100016 28 296 0.0 0.0 0.00 0.00 0.00 92 1012.2
20260509095516 28 296 0.0 0.0 0.00 0.00 0.00 92 1012.2
20260509095020 28 296 0.0 0.0 0.00 0.00 0.00 92 1012.2
20260509094519 28 296 0.0 0.0 0.00 0.00 0.00 92 1012.1
20260509093516 28 296 0.0 0.0 0.00 0.00 0.00 92 1012.0
20260509093016 28 296 0.0 0.0 0.00 0.00 0.00 92 1012.0
20260509092020 29 296 0.0 0.0 0.00 0.00 0.00 91 1011.9
20260509091519 29 296 0.0 0.0 0.00 0.00 0.00 91 1012.0
20260509091019 29 296 0.0 0.0 0.00 0.00 0.00 91 1012.0
20260509090518 29 296 0.0 0.0 0.00 0.00 0.00 91 1012.0
20260509085515 29 296 0.0 0.0 0.00 0.00 0.00 90 1012.0
20260509085051 29 296 0.0 0.0 0.00 0.00 0.00 90 1012.0
20260509084519 29 296 0.0 0.0 0.00 0.00 0.00 90 1012.1
20260509084018 29 296 0.0 0.0 0.00 0.00 0.00 90 1012.1
20260509083518 29 296 0.0 0.0 0.00 0.00 0.00 89 1012.3
20260509083017 29 296 0.0 0.0 0.00 0.00 0.00 89 1012.2
20260509082516 29 296 0.0 0.0 0.00 0.00 0.00 89 1012.2
20260509082016 29 296 0.0 0.0 0.00 0.00 0.00 89 1012.2
20260509081515 30 296 0.0 0.0 0.00 0.00 0.00 89 1012.2
20260509081015 30 296 0.0 0.0 0.00 0.00 0.00 89 1012.3
20260509080019 30 296 0.0 0.0 0.00 0.00 0.00 88 1012.2
20260509075518 30 296 0.0 0.0 0.00 0.00 0.00 88 1012.2
20260509075017 30 296 0.0 0.0 0.00 0.00 0.00 87 1012.2
20260509074516 30 296 0.0 0.0 0.00 0.00 0.00 87 1012.2
20260509074015 30 296 0.0 0.0 0.00 0.00 0.00 87 1012.2
20260509073515 30 296 0.0 0.0 0.00 0.00 0.00 87 1012.1
20260509072017 30 296 0.0 0.0 0.00 0.00 0.00 87 1012.0
20260509071516 30 296 0.0 0.0 0.00 0.00 0.00 87 1011.9
20260509071016 30 296 0.0 0.0 0.00 0.00 0.00 87 1012.0
20260509070515 30 296 0.0 0.0 0.00 0.00 0.00 88 1012.1
20260509070014 30 296 0.0 0.0 0.00 0.00 0.00 88 1012.2
20260509065520 30 296 0.0 1.0 0.00 0.00 0.00 88 1012.2
20260509065019 30 296 0.0 0.0 0.00 0.00 0.00 88 1012.1
20260509064517 30 296 0.0 0.0 0.00 0.00 0.00 88 1012.1
20260509064017 30 296 0.0 0.0 0.00 0.00 0.00 88 1012.2
20260509063014 30 296 0.0 0.0 0.00 0.00 0.00 88 1012.2
20260509062520 30 296 0.0 0.0 0.00 0.00 0.00 88 1012.3
20260509062019 30 296 0.0 0.0 0.00 0.00 0.00 88 1012.2
20260509061518 30 296 0.0 0.0 0.00 0.00 0.00 89 1012.3
20260509061018 30 296 0.0 0.0 0.00 0.00 0.00 89 1012.4
20260509060015 30 296 0.0 0.0 0.00 0.00 0.00 89 1012.3
20260509055515 30 296 0.0 0.0 0.00 0.00 0.00 89 1012.3
20260509055020 30 296 0.0 0.0 0.00 0.00 0.00 89 1012.3
20260509054518 31 296 0.0 0.0 0.00 0.00 0.00 89 1012.3
20260509054018 31 296 0.0 0.0 0.00 0.00 0.00 89 1012.4
20260509053015 31 296 0.0 0.0 0.00 0.00 0.00 89 1012.4
20260509052515 31 296 0.0 0.0 0.00 0.00 0.00 89 1012.3
20260509052014 31 296 0.0 0.0 0.00 0.00 0.00 89 1012.4
20260509051519 31 296 0.0 0.0 0.00 0.00 0.00 89 1012.4
20260509051018 31 296 0.0 0.0 0.00 0.00 0.00 89 1012.3
20260509050016 31 296 0.0 0.0 0.00 0.00 0.00 89 1012.3
20260509045515 31 296 0.0 0.0 0.00 0.00 0.00 89 1012.3
20260509045015 32 296 0.0 0.0 0.00 0.00 0.00 89 1012.3